User: anonymous   Login
Location: Meetinghouse Hill
(42.7686°N, 71.7752°W)
Time: 10:29:52
(UTC-04:00)
Language:

Iridium 34 - Orbit

View from above orbital plane
View from above orbital plane
View from above satellite
View from above satellite

Ground track
Ground track

The orbit data is extracted from the following two-line orbital elements,

1 24969U 97056E   16146.42513357  .00000012  00000-0 -26185-5 0  9996
2 24969  86.3952 120.9289 0002227  81.4106 278.7342 14.34213200976958
Epoch (UTC): 25 May 2016 10:12:11
Eccentricity: 0.0002227
inclination: 86.3952°
perigee height: 776 km
apogee height: 779 km
right ascension of ascending node: 120.9289°
argument of perigee: 81.4106°
revolutions per day: 14.34213200
mean anomaly at epoch: 278.7342°
orbit number at epoch: 97695

The dashed part of the orbit path shows where the satellite is in the earth's shadow,  

DLR